TimeMDT,TemperatureF,Dew PointF,Humidity,Sea Level PressureIn,VisibilityMPH,Wind Direction,Wind SpeedMPH,Gust SpeedMPH,PrecipitationIn,Events,Conditions,WindDirDegrees,DateUTC
12:53 AM,44.1,35.1,71,29.64,10.0,South,4.6,-,N/A,,Clear,170,2013-04-08 06:53:00
1:53 AM,46.9,34.0,61,29.64,10.0,WSW,4.6,-,N/A,,Clear,240,2013-04-08 07:53:00
2:53 AM,46.9,34.0,61,29.64,10.0,West,3.5,-,N/A,,Clear,260,2013-04-08 08:53:00
3:53 AM,44.1,34.0,68,29.62,10.0,WSW,4.6,-,N/A,,Mostly Cloudy,240,2013-04-08 09:53:00
4:53 AM,43.0,32.0,65,29.60,10.0,West,4.6,-,N/A,,Clear,260,2013-04-08 10:53:00
5:53 AM,41.0,32.0,70,29.61,10.0,Calm,Calm,-,N/A,,Clear,0,2013-04-08 11:53:00
6:53 AM,39.0,32.0,76,29.63,10.0,NNW,4.6,-,N/A,,Clear,340,2013-04-08 12:53:00
7:53 AM,46.9,36.0,66,29.65,10.0,Calm,Calm,-,N/A,,Clear,0,2013-04-08 13:53:00
8:53 AM,54.0,37.0,53,29.62,10.0,Calm,Calm,-,N/A,,Clear,0,2013-04-08 14:53:00
9:53 AM,62.1,35.1,37,29.61,10.0,ESE,6.9,-,N/A,,Clear,110,2013-04-08 15:53:00
10:53 AM,66.0,36.0,33,29.60,10.0,ESE,6.9,-,N/A,,Clear,110,2013-04-08 16:53:00
11:53 AM,73.0,32.0,22,29.56,10.0,SE,13.8,18.4,N/A,,Clear,130,2013-04-08 17:53:00
12:53 PM,75.0,32.0,21,29.54,10.0,SE,16.1,27.6,N/A,,Clear,140,2013-04-08 18:53:00
1:53 PM,73.9,34.0,23,29.51,10.0,SE,16.1,29.9,N/A,,Clear,140,2013-04-08 19:53:00
2:53 PM,73.9,37.0,26,29.47,10.0,SE,20.7,33.4,N/A,,Clear,130,2013-04-08 20:53:00
3:53 PM,73.0,46.9,39,29.45,10.0,SE,31.1,36.8,N/A,,Clear,140,2013-04-08 21:53:00
4:53 PM,64.9,51.1,61,29.47,10.0,SE,26.5,35.7,N/A,,Clear,130,2013-04-08 22:53:00
5:53 PM,63.0,52.0,67,29.50,10.0,ESE,18.4,24.2,N/A,,Clear,110,2013-04-08 23:53:00
6:42 PM,62.6,53.6,72,29.55,10.0,East,13.8,26.5,N/A,,Overcast,100,2013-04-09 00:42:00
6:53 PM,62.1,53.1,72,29.52,10.0,East,20.7,-,N/A,,Mostly Cloudy,80,2013-04-09 00:53:00
7:33 PM,60.8,53.6,77,29.53,10.0,ENE,24.2,33.4,N/A,,Mostly Cloudy,70,2013-04-09 01:33:00
7:53 PM,51.1,43.0,74,29.56,9.0,NE,27.6,44.9,N/A,,Overcast,40,2013-04-09 01:53:00
8:14 PM,46.4,42.8,87,29.53,9.0,NNE,32.2,43.7,N/A,,Overcast,30,2013-04-09 02:14:00
8:23 PM,46.4,42.8,87,29.55,8.0,NNE,32.2,44.9,N/A,Thunderstorm,Overcast,30,2013-04-09 02:23:00
8:53 PM,45.0,42.1,90,29.55,7.0,NNE,28.8,44.9,0.00,Rain-Thunderstorm,Light Rain,30,2013-04-09 02:53:00
8:55 PM,44.6,42.8,93,29.57,7.0,NNE,27.6,42.6,0.00,Rain-Thunderstorm,Light Rain,30,2013-04-09 02:55:00
9:16 PM,44.6,42.8,93,29.55,7.0,NE,33.4,47.2,0.00,Rain,Light Rain,40,2013-04-09 03:16:00
9:25 PM,42.8,39.2,87,29.54,8.0,NE,35.7,44.9,0.00,Rain,Light Rain,40,2013-04-09 03:25:00
9:53 PM,41.0,39.0,93,29.55,10.0,NNE,27.6,38.0,0.00,Rain,Light Rain,30,2013-04-09 03:53:00
10:02 PM,39.2,37.4,93,29.54,10.0,NNE,29.9,44.9,0.01,Rain-Thunderstorm,Light Rain,30,2013-04-09 04:02:00
10:53 PM,35.1,34.0,96,29.52,7.0,NE,32.2,46.0,0.16,Rain-Thunderstorm,Light Thunderstorms and Rain,40,2013-04-09 04:53:00
11:13 PM,33.8,33.8,100,29.59,1.8,NNE,28.8,38.0,0.21,Thunderstorm,Overcast,20,2013-04-09 05:13:00
11:29 PM,33.8,32.0,93,29.64,2.0,North,25.3,35.7,0.34,Thunderstorm,Overcast,10,2013-04-09 05:29:00
11:38 PM,33.8,32.0,93,29.63,5.0,North,27.6,33.4,0.36,Rain-Thunderstorm,Light Thunderstorms and Rain,360,2013-04-09 05:38:00
11:53 PM,33.1,30.9,92,29.62,8.0,North,27.6,34.5,0.38,Rain-Thunderstorm,Light Thunderstorms and Rain,360,2013-04-09 05:53:00